Regional Weather Roundup
Issued by NWS

Home | Current Version | Previous Version | Text Only | Print | Product List | Glossary Off
Versions: 1 2 3 4 5 6 7 8 9 10 11 12 13 14 15 16 17 18 19 20 21 22 23 24 25 26 27 28 29 30 31 32 33 34 35 36 37 38 39 40 41 42 43 44 45 46 47 48 49 50

000
ASUS43 KFSD 202002
RWRSD

WEATHER ROUNDUP FOR SOUTH DAKOTA
NATIONAL WEATHER SERVICE SIOUX FALLS SD
300 PM CDT FRI OCT 20 2017

NOTE: "FAIR" INDICATES FEW OR NO CLOUDS BELOW 12,000 FEET WITH NO
SIGNIFICANT WEATHER AND/OR OBSTRUCTIONS TO VISIBILITY.


SDZ001>005-009-010-012>017-202100-
NORTHWEST AND NORTH CENTRAL SOUTH DAKOTA

CITY           SKY/WX    TMP DP  RH WIND       PRES   REMARKS
BUFFALO          N/A     84  34  16 SW20G32   29.23F
MOBRIDGE       MOSUNNY   75  51  43 S24G31    29.34F
$$

SDZ012>016-024>037-041>051-057-063-072>074-202100-
SOUTHWEST AND SOUTH CENTRAL SOUTH DAKOTA

CITY           SKY/WX    TMP DP  RH WIND       PRES   REMARKS
RAPID CTY ARPT SUNNY     83  35  18 SW17G28   29.37F
PIERRE         MOSUNNY   80  52  37 S20       29.40F
CUSTER         SUNNY     70  32  24 SW13G21   29.51F
ELLSWORTH AFB  SUNNY     83  35  18 SW15G23   29.36
PHILIP         SUNNY     85  44  23 S14       29.36F
PINE RIDGE     SUNNY     80  41  24 S8        29.45F
SPEARFISH      FAIR      77  37  24 SW16G25   29.38F
WINNER         FAIR      78  53  41 S26G36    29.48F
$$

SDZ004>011-016>023-039-040-202100-
NORTHEAST SOUTH DAKOTA

CITY           SKY/WX    TMP DP  RH WIND       PRES   REMARKS
ABERDEEN       PTSUNNY   76  53  44 S24G33    29.46F
WATERTOWN      SUNNY     72  55  55 S25G38    29.56F
BROOKINGS      SUNNY     74  55  51 S25G35    29.60F
SISSETON         N/A     78  54  43 S25G33    29.50F
$$

SDZ017-020-022-023-036>040-048>070-202100-
SOUTHEAST SOUTH DAKOTA

CITY           SKY/WX    TMP DP  RH WIND       PRES   REMARKS
SIOUX FALLS    PTSUNNY   76  57  51 S29G38    29.64F
HURON          SUNNY     76  54  46 S23G40    29.52F
CHAMBERLAIN    MOSUNNY   78  56  45 S21G29    29.49F
MITCHELL       SUNNY     76  54  46 S28G37    29.55F
$$

ABBREVIATIONS USED IN REMARKS
   TC - TEMPERATURE IN CELSIUS
  WCI - WIND CHILL INDEX
   HX - HEAT INDEX
  VSB - VISIBILITY





USA.gov is the U.S. government's official web portal to all federal, state and local government web resources and services.